| time (UTC) | temp C | wind direction | speed KPH | gust KPH | rain 1hr cm | rain 24hr cm | rain mn cm | humidity % | barometer mb |
| 20260510131024 | 17 | 0.0 | 0.0 | 0.00 | 0.00 | 0.00 | 86 | 1011.9 | |
| 20260510130026 | 16 | 0.0 | 1.6 | 0.00 | 0.00 | 0.00 | 82 | 1012.0 | |
| 20260510125025 | 15 | 0.0 | 0.0 | 0.00 | 0.00 | 0.00 | 17 | 1012.2 | |
| 20260510124027 | 14 | 0.0 | 1.6 | 0.00 | 0.00 | 0.00 | 1 | 1012.1 | |
| 20260510123025 | 13 | 0.0 | 0.0 | 0.00 | 0.00 | 0.00 | 1 | 1012.0 | |
| 20260510122026 | 13 | 0.0 | 0.0 | 0.00 | 0.00 | 0.00 | 1 | 1011.7 | |
| 20260510121027 | 12 | 0.0 | 0.0 | 0.00 | 0.00 | 0.00 | 1 | 1011.7 | |
| 20260510120026 | 12 | 0.0 | 0.0 | 0.00 | 0.00 | 0.00 | 1 | 1011.7 | |
| 20260510115026 | 11 | 0.0 | 0.0 | 0.00 | 0.00 | 0.00 | 1 | 1011.5 | |
| 20260510114024 | 11 | 0.0 | 0.0 | 0.00 | 0.00 | 0.00 | 4 | 1011.4 | |
| 20260510113026 | 10 | 0.0 | 0.0 | 0.00 | 0.00 | 0.00 | 7 | 1011.4 | |
| 20260510112026 | 10 | 0.0 | 0.0 | 0.00 | 0.00 | 0.00 | 8 | 1011.4 | |
| 20260510111525 | -17 | 0.0 | 0.0 | 0.00 | 0.00 | 0.00 | |||
| 20260510110525 | -17 | 0.0 | 0.0 | 0.00 | 0.00 | 0.00 | |||
| 20260510110015 | -17 | 0.0 | 0.0 | 0.00 | 0.00 | 0.00 | |||
| 20260510105614 | -17 | 0.0 | 0.0 | 0.00 | 0.00 | 0.00 | |||
| 20260510105026 | -17 | 0.0 | 0.0 | 0.00 | 0.00 | 0.00 | |||
| 20260510104025 | -17 | 0.0 | 0.0 | 0.00 | 0.00 | 0.00 | |||
| 20260510103539 | -17 | 0.0 | 0.0 | 0.00 | 0.00 | 0.00 | |||
| 20260510103019 | -17 | 0.0 | 0.0 | 0.00 | 0.00 | 0.00 | |||
| 20260510102526 | -17 | 0.0 | 0.0 | 0.00 | 0.00 | 0.00 | |||
| 20260510101525 | -17 | 0.0 | 0.0 | 0.00 | 0.00 | 0.00 | |||
| 20260510101040 | -17 | 0.0 | 0.0 | 0.00 | 0.00 | 0.00 | |||
| 20260510100519 | -17 | 0.0 | 0.0 | 0.00 | 0.00 | 0.00 | |||
| 20260510100025 | -17 | 0.0 | 0.0 | 0.00 | 0.00 | 0.00 | |||
| 20260510095025 | -17 | 0.0 | 0.0 | 0.00 | 0.00 | 0.00 | |||
| 20260510094545 | -17 | 0.0 | 0.0 | 0.00 | 0.00 | 0.00 | |||
| 20260510094041 | -17 | 0.0 | 0.0 | 0.00 | 0.00 | 0.00 | |||
| 20260510093525 | -17 | 0.0 | 0.0 | 0.00 | 0.00 | 0.00 | |||
| 20260510092556 | -17 | 0.0 | 0.0 | 0.00 | 0.00 | 0.00 | |||
| 20260510092045 | -17 | 0.0 | 0.0 | 0.00 | 0.00 | 0.00 | |||
| 20260510091523 | -17 | 0.0 | 0.0 | 0.00 | 0.00 | 0.00 | |||
| 20260510091025 | -17 | 0.0 | 0.0 | 0.00 | 0.00 | 0.00 | |||
| 20260510090025 | -17 | 0.0 | 0.0 | 0.00 | 0.00 | 0.00 | |||
| 20260510085616 | -17 | 0.0 | 0.0 | 0.00 | 0.00 | 0.00 | 31 | ||
| 20260510085033 | 10 | 0.0 | 0.0 | 0.00 | 0.00 | 0.00 | 31 | 1009.9 | |
| 20260510084527 | 11 | 0.0 | 0.0 | 0.00 | 0.00 | 0.00 | 30 | 1009.8 | |
| 20260510083526 | 10 | 0.0 | 0.0 | 0.00 | 0.00 | 0.00 | 35 | 1009.9 | |
| 20260510082526 | 11 | 0.0 | 0.0 | 0.00 | 0.00 | 0.00 | 38 | 1009.8 | |
| 20260510081526 | 11 | 0.0 | 0.0 | 0.00 | 0.00 | 0.00 | 37 | 1009.7 | |
| 20260510080527 | 11 | 0.0 | 0.0 | 0.00 | 0.00 | 0.00 | 45 | 1009.5 | |
| 20260510075526 | 11 | 0.0 | 0.0 | 0.00 | 0.00 | 0.00 | 42 | 1009.4 | |
| 20260510074525 | 11 | 0.0 | 0.0 | 0.00 | 0.00 | 0.00 | 49 | 1009.4 | |
| 20260510073527 | 11 | 0.0 | 0.0 | 0.00 | 0.00 | 0.00 | 49 | 1009.1 | |
| 20260510072526 | 11 | 0.0 | 0.0 | 0.00 | 0.00 | 0.00 | 49 | 1009.1 | |
| 20260510071525 | 11 | 0.0 | 0.0 | 0.00 | 0.00 | 0.00 | 54 | 1009.1 | |
| 20260510070526 | 11 | 0.0 | 0.0 | 0.00 | 0.00 | 0.00 | 63 | 1009.2 | |
| 20260510065526 | 11 | 0.0 | 0.0 | 0.00 | 0.00 | 0.00 | 65 | 1009.1 | |
| 20260510064526 | 11 | 0.0 | 0.0 | 0.00 | 0.00 | 0.00 | 69 | 1009.0 | |
| 20260510063526 | 11 | 0.0 | 0.0 | 0.00 | 0.00 | 0.00 | 73 | 1009.0 | |
| 20260510062525 | 12 | 0.0 | 0.0 | 0.00 | 0.00 | 0.00 | 73 | 1009.1 | |
| 20260510061525 | 12 | 0.0 | 0.0 | 0.00 | 0.00 | 0.00 | 78 | 1009.0 | |
| 20260510060525 | 12 | 0.0 | 0.0 | 0.00 | 0.00 | 0.00 | 78 | 1008.9 | |
| 20260510055526 | 12 | 0.0 | 0.0 | 0.00 | 0.00 | 0.00 | 78 | 1008.9 | |
| 20260510054526 | 12 | 0.0 | 0.0 | 0.00 | 0.00 | 0.00 | 83 | 1009.0 | |
| 20260510053526 | 12 | 0.0 | 0.0 | 0.00 | 0.00 | 0.00 | 84 | 1009.0 | |
| 20260510052606 | 12 | 0.0 | 0.0 | 0.00 | 0.00 | 0.00 | 84 | 1009.0 | |
| 20260510051526 | 12 | 0.0 | 0.0 | 0.00 | 0.00 | 0.00 | 85 | 1009.0 | |
| 20260510050526 | 13 | 0.0 | 0.0 | 0.00 | 0.00 | 0.00 | 86 | 1008.9 | |
| 20260510045526 | 13 | 0.0 | 0.0 | 0.00 | 0.00 | 0.00 | 86 | 1008.9 | |
| 20260510044626 | 13 | 0.0 | 0.0 | 0.00 | 0.00 | 0.00 | 86 | 1009.0 | |
| 20260510043546 | 13 | 0.0 | 0.0 | 0.00 | 0.00 | 0.00 | 86 | 1008.8 | |
| 20260510042526 | 13 | 0.0 | 0.0 | 0.00 | 0.00 | 0.00 | 86 | 1008.8 | |
| 20260510041525 | 13 | 0.0 | 0.0 | 0.00 | 0.00 | 0.00 | 86 | 1008.9 | |
| 20260510040535 | 13 | 0.0 | 0.0 | 0.00 | 0.00 | 0.00 | 85 | 1008.8 | |
| 20260510035526 | 13 | 0.0 | 0.0 | 0.00 | 0.00 | 0.00 | 85 | 1008.7 | |
| 20260510034526 | 13 | 0.0 | 0.0 | 0.00 | 0.00 | 0.00 | 85 | 1008.7 | |
| 20260510033606 | 14 | 0.0 | 0.0 | 0.00 | 0.00 | 0.00 | 84 | 1008.6 | |
| 20260510032546 | 14 | 0.0 | 0.0 | 0.00 | 0.00 | 0.00 | 84 | 1008.6 | |
| 20260510031526 | 14 | 0.0 | 0.0 | 0.00 | 0.00 | 0.00 | 84 | 1008.5 | |
| 20260510030526 | 14 | 0.0 | 0.0 | 0.00 | 0.00 | 0.00 | 83 | 1008.5 | |
| 20260510025526 | 14 | 0.0 | 0.0 | 0.00 | 0.00 | 0.00 | 83 | 1008.4 | |
| 20260510024546 | 14 | 0.0 | 0.0 | 0.00 | 0.00 | 0.00 | 83 | 1008.2 | |
| 20260510023525 | 15 | 0.0 | 0.0 | 0.00 | 0.00 | 0.00 | 82 | 1008.1 | |
| 20260510022525 | 15 | 0.0 | 0.0 | 0.00 | 0.00 | 0.00 | 82 | 1008.1 | |
| 20260510021525 | 15 | 0.0 | 0.0 | 0.00 | 0.00 | 0.00 | 81 | 1008.0 | |
| 20260510020526 | 15 | 0.0 | 0.0 | 0.00 | 0.00 | 0.00 | 80 | 1007.9 | |
| 20260510015526 | 15 | 0.0 | 0.0 | 0.00 | 0.00 | 0.00 | 79 | 1007.9 | |
| 20260510014546 | 16 | 0.0 | 0.0 | 0.00 | 0.00 | 0.00 | 78 | 1007.7 | |
| 20260510013546 | 16 | 0.0 | 0.0 | 0.00 | 0.00 | 0.00 | 78 | 1007.5 | |
| 20260510012525 | 16 | 0.0 | 0.0 | 0.00 | 0.00 | 0.00 | 76 | 1007.4 | |
| 20260510011526 | 16 | 0.0 | 0.0 | 0.00 | 0.00 | 0.00 | 75 | 1007.3 | |
| 20260510010526 | 17 | 0.0 | 0.0 | 0.00 | 0.00 | 0.00 | 74 | 1007.3 | |
| 20260510005526 | 17 | 0.0 | 0.0 | 0.00 | 0.00 | 0.00 | 72 | 1007.2 | |
| 20260510004606 | 18 | 0.0 | 0.0 | 0.00 | 0.00 | 0.00 | 70 | 1006.9 | |
| 20260510003551 | 18 | 0.0 | 0.0 | 0.00 | 0.00 | 0.00 | 68 | 1006.9 | |
| 20260510002525 | 19 | 0.0 | 0.0 | 0.00 | 0.00 | 0.00 | 65 | 1006.7 | |
| 20260510001525 | 20 | 0.0 | 0.0 | 0.00 | 0.00 | 0.00 | 63 | 1006.7 | |
| 20260510000525 | 20 | 0.0 | 0.0 | 0.00 | 0.00 | 0.00 | 62 | 1006.7 | |
| 20260509235525 | 21 | 0.0 | 0.0 | 0.00 | 0.00 | 0.00 | 61 | 1006.5 | |
| 20260509234525 | 21 | 0.0 | 0.0 | 0.00 | 0.00 | 0.00 | 58 | 1006.4 | |
| 20260509233526 | 22 | 0.0 | 1.6 | 0.00 | 0.00 | 0.00 | 55 | 1006.4 | |
| 20260509232525 | 22 | 0.0 | 1.6 | 0.00 | 0.00 | 0.00 | 54 | 1006.4 | |
| 20260509231525 | 23 | 0.0 | 1.6 | 0.00 | 0.00 | 0.00 | 53 | 1006.4 | |
| 20260509230525 | 23 | 0.0 | 1.6 | 0.00 | 0.00 | 0.00 | 51 | 1006.4 | |
| 20260509225525 | 23 | 0.0 | 1.6 | 0.00 | 0.00 | 0.00 | 52 | 1006.4 | |
| 20260509224525 | 23 | 0.0 | 4.8 | 0.00 | 0.00 | 0.00 | 51 | 1006.2 | |
| 20260509223545 | 23 | 0.0 | 4.8 | 0.00 | 0.00 | 0.00 | 51 | 1006.3 | |
| 20260509222525 | 23 | 0.0 | 4.8 | 0.00 | 0.00 | 0.00 | 50 | 1006.4 | |
| 20260509221525 | 23 | 0.0 | 1.6 | 0.00 | 0.00 | 0.00 | 52 | 1006.4 | |
| 20260509220531 | 23 | 0.0 | 1.6 | 0.00 | 0.00 | 0.00 | 51 | 1006.4 | |
| 20260509215525 | 23 | 0.0 | 1.6 | 0.00 | 0.00 | 0.00 | 51 | 1006.4 | |
| 20260509214525 | 23 | 0.0 | 4.8 | 0.00 | 0.00 | 0.00 | 51 | 1006.5 | |
| 20260509213525 | 23 | 0.0 | 1.6 | 0.00 | 0.00 | 0.00 | 51 | 1006.5 | |
| 20260509212546 | 23 | 0.0 | 4.8 | 0.00 | 0.00 | 0.00 | 50 | 1006.3 | |
| 20260509211525 | 23 | 0 | 1.6 | 8.0 | 0.00 | 0.00 | 0.00 | 49 | 1006.3 |
| 20260509210525 | 24 | 0 | 1.6 | 8.0 | 0.00 | 0.00 | 0.00 | 50 | 1006.1 |
| 20260509205525 | 24 | 0 | 1.6 | 8.0 | 0.00 | 0.00 | 0.00 | 51 | 1006.2 |
| 20260509204525 | 24 | 0 | 1.6 | 8.0 | 0.00 | 0.00 | 0.00 | 50 | 1006.2 |
| 20260509203525 | 25 | 0 | 1.6 | 6.4 | 0.00 | 0.00 | 0.00 | 48 | 1006.1 |
| 20260509202545 | 25 | 0.0 | 3.2 | 0.00 | 0.00 | 0.00 | 50 | 1006.1 | |
| 20260509201526 | 25 | 0.0 | 1.6 | 0.00 | 0.00 | 0.00 | 51 | 1006.3 | |
| 20260509200526 | 25 | 0.0 | 4.8 | 0.00 | 0.00 | 0.00 | 51 | 1006.6 | |
| 20260509195525 | 25 | 0.0 | 3.2 | 0.00 | 0.00 | 0.00 | 50 | 1006.6 | |
| 20260509194605 | 25 | 0.0 | 3.2 | 0.00 | 0.00 | 0.00 | 52 | 1006.7 | |
| 20260509193525 | 24 | 0.0 | 4.8 | 0.00 | 0.00 | 0.00 | 54 | 1006.9 | |
| 20260509192525 | 23 | 0.0 | 4.8 | 0.00 | 0.00 | 0.00 | 57 | 1007.2 | |
| 20260509191525 | 22 | 0.0 | 1.6 | 0.00 | 0.00 | 0.00 | 59 | 1007.4 | |
| 20260509190605 | 23 | 0.0 | 1.6 | 0.00 | 0.00 | 0.00 | 56 | 1007.5 | |
| 20260509185525 | 23 | 0.0 | 1.6 | 0.00 | 0.00 | 0.00 | 57 | 1007.6 | |
| 20260509184545 | 23 | 0.0 | 3.2 | 0.00 | 0.00 | 0.00 | 58 | 1007.7 | |
| 20260509183525 | 22 | 0.0 | 1.6 | 0.00 | 0.00 | 0.00 | 58 | 1007.9 | |
| 20260509182525 | 22 | 0.0 | 1.6 | 0.00 | 0.00 | 0.00 | 58 | 1007.9 | |
| 20260509181605 | 23 | 0.0 | 3.2 | 0.00 | 0.00 | 0.00 | 56 | 1008.1 | |
| 20260509180525 | 22 | 0.0 | 3.2 | 0.00 | 0.00 | 0.00 | 58 | 1008.1 | |
| 20260509175545 | 22 | 0.0 | 3.2 | 0.00 | 0.00 | 0.00 | 58 | 1008.1 | |
| 20260509174524 | 22 | 0.0 | 6.4 | 0.00 | 0.00 | 0.00 | 58 | 1008.2 | |
| 20260509173545 | 23 | 0.0 | 3.2 | 0.00 | 0.00 | 0.00 | 54 | 1008.3 | |
| 20260509172525 | 23 | 0.0 | 3.2 | 0.00 | 0.00 | 0.00 | 57 | 1008.4 | |
| 20260509171545 | 22 | 0.0 | 8.0 | 0.00 | 0.00 | 0.00 | 58 | 1008.6 | |
| 20260509170525 | 21 | 0.0 | 6.4 | 0.00 | 0.00 | 0.00 | 61 | 1008.7 | |
| 20260509165525 | 21 | 0.0 | 1.6 | 0.00 | 0.00 | 0.00 | 61 | 1008.7 | |
| 20260509164525 | 21 | 0.0 | 3.2 | 0.00 | 0.00 | 0.00 | 59 | 1008.7 | |
| 20260509163525 | 21 | 0 | 1.6 | 6.4 | 0.00 | 0.00 | 0.00 | 58 | 1008.8 |
| 20260509162524 | 21 | 0.0 | 6.4 | 0.00 | 0.00 | 0.00 | 59 | 1008.8 | |
| 20260509161525 | 21 | 0 | 1.6 | 17.7 | 0.00 | 0.00 | 0.00 | 58 | 1009.0 |
| 20260509160525 | 21 | 0 | 1.6 | 8.0 | 0.00 | 0.00 | 0.00 | 56 | 1008.9 |
| 20260509155525 | 22 | 23 | 1.6 | 14.5 | 0.00 | 0.00 | 0.00 | 55 | 1009.1 |
| 20260509154524 | 22 | 23 | 1.6 | 14.5 | 0.00 | 0.00 | 0.00 | 56 | 1009.1 |
| 20260509153524 | 22 | 0 | 1.6 | 9.7 | 0.00 | 0.00 | 0.00 | 54 | 1009.3 |
| 20260509152524 | 22 | 90 | 1.6 | 11.3 | 0.00 | 0.00 | 0.00 | 55 | 1009.5 |
| 20260509151524 | 21 | 90 | 1.6 | 8.0 | 0.00 | 0.00 | 0.00 | 56 | 1009.3 |
| 20260509150524 | 21 | 68 | 3.2 | 11.3 | 0.00 | 0.00 | 0.00 | 57 | 1009.2 |
| 20260509145524 | 21 | 68 | 1.6 | 8.0 | 0.00 | 0.00 | 0.00 | 61 | 1009.4 |
| 20260509144525 | 20 | 0.0 | 4.8 | 0.00 | 0.00 | 0.00 | 60 | 1009.7 | |
| 20260509143525 | 20 | 0.0 | 3.2 | 0.00 | 0.00 | 0.00 | 61 | 1009.8 | |
| 20260509142524 | 19 | 68 | 1.6 | 6.4 | 0.00 | 0.00 | 0.00 | 61 | 1009.9 |
| 20260509141525 | 18 | 0.0 | 4.8 | 0.00 | 0.00 | 0.00 | 63 | 1009.9 | |
| 20260509140524 | 18 | 0.0 | 6.4 | 0.00 | 0.00 | 0.00 | 65 | 1010.0 | |
| 20260509135525 | 18 | 0.0 | 6.4 | 0.00 | 0.00 | 0.00 | 65 | 1010.1 | |
| 20260509134525 | 17 | 68 | 1.6 | 6.4 | 0.00 | 0.00 | 0.00 | 66 | 1010.3 |
| 20260509133524 | 17 | 0.0 | 6.4 | 0.00 | 0.00 | 0.00 | 69 | 1010.4 | |
| 20260509132525 | 16 | 68 | 1.6 | 8.0 | 0.00 | 0.00 | 0.00 | 71 | 1010.4 |
| 20260509131544 | 16 | 68 | 1.6 | 9.7 | 0.00 | 0.00 | 0.00 | 73 | 1010.4 |